Content
SEND FEEDBACK

Daily
Averages
Monthly
Summary
United States of America

MIDLAND, MICHIGAN


Home > North America > United States > Michigan
Elevation: 628 feet     Latitude: 43 39N     Longitude: 084 15W

WEATHER
 
SELECT A DAY
Number of Records: 107,689;   Date Range: 1/13/10 - 8/26/14
 
SHARE

PRINT THIS DATA

[ ← Previous Day ]
WEATHER ALMANAC - JANUARY 3, 2013
[ Next Day → ]
[ °C ]   °F
Weather ElementAverageHighLow
Temperature26.3 °F29.8 °F (11:14 pm)21.7 °F (6:34 am)
Dewpoint20.2 °F23 °F (1:14 pm)15.6 °F (4:53 am)
Humidity77.7 %82 % (12:34 am)71 % (2:14 am)
Barometer30.05 in30.10 in (7:15 pm)29.99 in (12:54 pm)
Wind Speed8.6 mph13.8 mph (1:54 pm)
Wind Gust20.7 mph (1:13 am)
Weather ElementAverage
Visibility8.9 mi
Wind DirectionWSW (233.2 °)

Weather ElementTotal
Precipitation---
Heating Degree Days39.3 (Base 65)
Averaged from 68 records on January 3, 2013
WEATHER CONDITIONS BREAKOUT
WIND DIRECTION BREAKOUT
WEATHER BY HOUR - JANUARY 3, 2013
[ °C ]   °F
Local TimeTemperatureDewpointHumidityBarometerVisibilityWind DirectionWind SpeedGust SpeedPrecipitationEventsConditions
12:34 AM26.4 °F21.6 °F82 %30.09 in10.0 miSSW (210°)5.8 mphOvercast
12:54 AM26.6 °F21.2 °F80 %30.09 in10.0 miSSW (200°)9.2 mphOvercast
1:13 AM26.2 °F20.1 °F78 %30.09 in10.0 miSSW (200°)12.7 mph20.7 mphOvercast
1:34 AM25.7 °F18.9 °F75 %30.09 in10.0 miSSW (210°)11.5 mphOvercast
1:54 AM25.3 °F18.3 °F75 %30.09 in10.0 miSSW (210°)9.2 mphOvercast
2:14 AM24.8 °F16.7 °F71 %30.08 in10.0 miSSW (200°)11.5 mphOvercast
2:34 AM24.1 °F16.5 °F73 %30.07 in10.0 miNorthSnowLight Snow
3:14 AM23.2 °F16.5 °F76 %30.07 in10.0 miSouth (190°)11.5 mphSnowLight Snow
3:34 AM23.0 °F16.9 °F77 %30.07 in7.0 miSouth (180°)6.9 mphSnowLight Snow
3:54 AM22.6 °F16.3 °F77 %30.06 in10.0 miSouth (180°)10.4 mphSnowLight Snow
4:14 AM22.5 °F15.8 °F76 %30.05 in10.0 miSouth (190°)8.1 mphOvercast
4:34 AM22.3 °F15.8 °F76 %30.05 in10.0 miSSW (210°)5.8 mphSnowLight Snow
4:53 AM22.1 °F15.6 °F76 %30.04 in10.0 miSSW (200°)11.5 mphSnowLight Snow
5:14 AM21.9 °F15.6 °F77 %30.03 in7.0 miSSW (200°)9.2 mphSnowLight Snow
5:34 AM21.9 °F16.2 °F78 %30.03 in7.0 miSSW (200°)6.9 mphSnowLight Snow
5:54 AM21.9 °F16.5 °F80 %30.02 in7.0 miSouth (190°)6.9 mphSnowLight Snow
6:14 AM21.9 °F17.2 °F82 %30.02 in7.0 miSSW (200°)5.8 mphSnowLight Snow
6:34 AM21.7 °F17.1 °F82 %30.02 in10.0 miSSW (200°)5.8 mphSnowLight Snow
6:54 AM21.7 °F16.7 °F81 %30.00 in10.0 miSSW (200°)9.2 mphOvercast
7:14 AM21.7 °F16.7 °F81 %30.01 in10.0 miSW (220°)6.9 mphOvercast
7:34 AM21.9 °F16.7 °F80 %30.01 in10.0 miSW (220°)6.9 mphOvercast
7:54 AM22.1 °F17.1 °F81 %30.02 in10.0 miWSW (240°)5.8 mphSnowLight Snow
8:14 AM22.1 °F17.2 °F82 %30.02 in10.0 miSW (230°)5.8 mphOvercast
8:22 AM22.3 °F17.2 °F81 %30.02 in10.0 miSW (230°)4.6 mphOvercast
8:54 AM22.8 °F17.6 °F80 %30.03 in10.0 miWSW (240°)8.1 mphOvercast
9:14 AM23.0 °F17.6 °F80 %30.03 in10.0 miSW (230°)8.1 mphOvercast
9:34 AM23.0 °F18.0 °F81 %30.03 in7.0 miSW (230°)6.9 mphSnowLight Snow
9:54 AM23.5 °F18.5 °F81 %30.03 in7.0 miSW (230°)4.6 mphSnowLight Snow
10:15 AM23.9 °F19.2 °F82 %30.03 in10.0 miWSW (240°)6.9 mphOvercast
10:34 AM24.4 °F19.8 °F82 %30.03 in7.0 miWSW (240°)5.8 mphSnowLight Snow
10:54 AM25.0 °F20.3 °F82 %30.03 in7.0 miSW (230°)6.9 mphSnowLight Snow
11:14 AM25.7 °F21.0 °F82 %30.02 in7.0 miWSW (240°)8.1 mphOvercast
11:34 AM26.4 °F21.7 °F82 %30.02 in5.0 miWSW (240°)9.2 mphSnowLight Snow
11:54 AM26.6 °F21.9 °F82 %30.02 in5.0 miWSW (250°)10.4 mphSnowLight Snow
12:14 PM27.1 °F22.3 °F82 %30.02 in7.0 miWSW (250°)8.1 mphSnowLight Snow
12:34 PM27.5 °F22.5 °F81 %30.00 in7.0 miWSW (250°)8.1 mphSnowLight Snow
12:54 PM27.9 °F22.8 °F81 %29.99 in5.0 miWSW (250°)6.9 mphSnowLight Snow
1:14 PM28.2 °F23.0 °F81 %30.00 in7.0 miWest (260°)6.9 mphSnowLight Snow
1:35 PM28.4 °F22.8 °F80 %29.99 in5.0 miWest (270°)10.4 mph17.3 mphSnowLight Snow
1:54 PM28.4 °F22.8 °F80 %30.00 in7.0 miWest (270°)13.8 mph19.6 mphOvercast
2:14 PM29.1 °F23.0 °F78 %29.99 in5.0 miWest (270°)10.4 mph17.3 mphSnowLight Snow
2:34 PM29.3 °F22.6 °F76 %30.00 in7.0 miWest (270°)9.2 mph16.1 mphOvercast
2:54 PM29.3 °F22.3 °F75 %30.00 in7.0 miWest (270°)9.2 mph19.6 mphSnowLight Snow
3:14 PM29.3 °F22.5 °F76 %30.02 in7.0 miWest (260°)13.8 mphSnowLight Snow
3:34 PM29.3 °F22.1 °F75 %30.02 in10.0 miWest (270°)13.8 mph17.3 mphOvercast
3:54 PM29.3 °F22.1 °F75 %30.03 in10.0 miWest (270°)5.8 mphOvercast
4:55 PM29.3 °F22.1 °F75 %30.05 in10.0 miWest (270°)8.1 mph18.4 mphOvercast
5:14 PM29.1 °F22.1 °F75 %30.06 in10.0 miWest (270°)9.2 mphOvercast
5:34 PM28.9 °F22.1 °F76 %30.07 in10.0 miWest (260°)6.9 mphOvercast
5:54 PM29.1 °F22.1 °F75 %30.08 in10.0 miWest (270°)6.9 mphOvercast
6:15 PM29.1 °F22.5 °F76 %30.09 in10.0 miWest (260°)6.9 mphOvercast
6:34 PM29.3 °F22.6 °F76 %30.09 in10.0 miWest (270°)9.2 mphOvercast
6:54 PM29.3 °F22.8 °F77 %30.09 in10.0 miWest (270°)9.2 mphOvercast
7:15 PM29.3 °F22.8 °F77 %30.10 in10.0 miWest (270°)8.1 mphOvercast
7:34 PM29.3 °F22.6 °F76 %30.10 in10.0 miWest (260°)6.9 mphOvercast
7:54 PM29.3 °F22.5 °F76 %30.09 in10.0 miWest (260°)8.1 mphOvercast
8:14 PM29.7 °F22.5 °F75 %30.09 in10.0 miWest (260°)5.8 mphOvercast
8:34 PM29.7 °F22.5 °F75 %30.09 in10.0 miWSW (240°)9.2 mphOvercast
8:55 PM29.3 °F22.5 °F76 %30.09 in10.0 miWSW (240°)8.1 mphOvercast
9:14 PM29.3 °F22.6 °F76 %30.09 in10.0 miWSW (240°)10.4 mphOvercast
9:34 PM29.3 °F22.3 °F75 %30.08 in10.0 miWSW (240°)8.1 mphOvercast
9:55 PM29.7 °F22.1 °F73 %30.08 in10.0 miWSW (240°)10.4 mph16.1 mphOvercast
10:14 PM29.7 °F22.1 °F73 %30.08 in10.0 miWSW (240°)11.5 mph16.1 mphOvercast
10:34 PM29.3 °F22.8 °F77 %30.07 in10.0 miWSW (240°)10.4 mphOvercast
10:55 PM29.7 °F22.6 °F75 %30.07 in10.0 miWest (260°)8.1 mph17.3 mphOvercast
11:14 PM29.8 °F22.1 °F73 %30.07 in10.0 miWest (260°)11.5 mph17.3 mphOvercast
11:34 PM29.7 °F21.9 °F73 %30.06 in10.0 miWest (260°)13.8 mph17.3 mphOvercast
11:54 PM29.7 °F21.4 °F71 %30.06 in10.0 miWSW (240°)8.1 mph18.4 mphOvercast
Hourly data recorded from KIKW, located miles away from Midland, Michigan







STORIES FROM OUR PARTNERS